DW7087 Weather Reports


time (UTC)temp
C
wind
direction
speed
KPH
gust
KPH
rain 1hr
cm
rain 24hr
cm
rain mn
cm
humidity
%
barometer
mb
20190420122210 23 92 4.8 9.7 0.00 0.00 0.00 36 1029.0
20190420121310 22 71 6.4 12.9 0.00 0.00 0.00 36 1029.1
20190420120410 23 68 4.8 12.9 0.00 0.00 0.00 34 1029.2
20190420115510 23 76 4.8 9.7 0.00 0.00 0.00 37 1029.3
20190420114610 22 35 4.8 9.7 0.00 0.00 0.00 38 1029.3
20190420113710 22 45 9.7 17.7 0.00 0.00 0.00 38 1029.3
20190420112810 22 32 6.4 12.9 0.00 0.00 0.00 39 1029.4
20190420111910 22 54 6.4 12.9 0.00 0.00 0.00 40 1029.5
20190420111010 22 54 9.7 14.5 0.00 0.00 0.00 39 1029.5
20190420110110 21 42 9.7 14.5 0.00 0.00 0.00 40 1029.7
20190420105210 21 31 9.7 17.7 0.00 0.00 0.00 40 1029.5
20190420104310 21 49 4.8 12.9 0.00 0.00 0.00 43 1029.6
20190420103410 21 65 4.8 12.9 0.00 0.00 0.00 43 1029.6
20190420102510 21 83 4.8 8.0 0.00 0.00 0.00 44 1029.7
20190420101610 21 19 11.3 17.7 0.00 0.00 0.00 46 1029.8
20190420100710 21 34 8.0 12.9 0.00 0.00 0.00 47 1029.8
20190420095810 20 66 4.8 12.9 0.00 0.00 0.00 50 1029.8
20190420094910 20 95 3.2 6.4 0.00 0.00 0.00 51 1029.8
20190420094010 20 67 1.6 6.4 0.00 0.00 0.00 54 1029.9
20190420093110 19 357 3.2 8.0 0.00 0.00 0.00 55 1030.0
20190420092210 18 35 3.2 6.4 0.00 0.00 0.00 55 1030.0
20190420091310 18 45 3.2 8.0 0.00 0.00 0.00 58 1029.9
20190420090410 17 0 0.0 0.0 0.00 0.00 0.00 60 1030.0
20190420085510 16 0 0.0 0.0 0.00 0.00 0.00 63 1030.2
20190420084610 16 39 1.6 8.0 0.00 0.00 0.00 65 1030.3
20190420083710 15 65 0.0 1.6 0.00 0.00 0.00 70 1030.2
20190420082810 14 0 0.0 0.0 0.00 0.00 0.00 72 1030.1
20190420081910 13 70 1.6 6.4 0.00 0.00 0.00 76 1030.2
20190420081010 12 42 4.8 8.0 0.00 0.00 0.00 83 1030.1
20190420080110 11 58 1.6 6.4 0.00 0.00 0.00 92 1030.3
20190420075210 10 0 0.0 0.0 0.00 0.00 0.00 95 1030.2
20190420074310 10 0 0.0 0.0 0.00 0.00 0.00 97 1030.2
20190420073412 9 0 0.0 0.0 0.00 0.00 0.00 97 1030.4
20190420072510 8 0 0.0 0.0 0.00 0.00 0.00 97 1030.4
20190420071610 8 0 0.0 0.0 0.00 0.00 0.00 98 1030.3
20190420070710 7 0 0.0 0.0 0.00 0.00 0.00 97 1030.4
20190420065810 7 0 0.0 0.0 0.00 0.00 0.00 97 1030.4
20190420064910 6 0 0.0 0.0 0.00 0.00 0.00 98 1030.4
20190420064010 6 0 0.0 0.0 0.00 0.00 0.00 97 1030.3
20190420063110 6 0 0.0 0.0 0.00 0.00 0.00 97 1030.3
20190420062210 5 0 0.0 0.0 0.00 0.00 0.00 97 1030.3
20190420061310 5 0 0.0 0.0 0.00 0.00 0.00 96 1030.2
20190420060410 5 0 0.0 0.0 0.00 0.00 0.00 96 1030.2
20190420055510 5 0 0.0 0.0 0.00 0.00 0.00 96 1030.2
20190420054610 5 0 0.0 0.0 0.00 0.00 0.00 96 1030.1
20190420053710 4 0 0.0 0.0 0.00 0.00 0.00 96 1030.0
20190420052810 4 0 0.0 0.0 0.00 0.00 0.00 95 1030.1
20190420051910 4 0 0.0 0.0 0.00 0.00 0.00 95 1030.3
20190420051010 4 0 0.0 0.0 0.00 0.00 0.00 95 1030.1
20190420050111 4 0 0.0 0.0 0.00 0.00 0.00 95 1030.1
20190420045210 5 0 0.0 0.0 0.00 0.00 0.00 95 1030.1
20190420044310 5 0 0.0 0.0 0.00 0.00 0.00 95 1030.1
20190420043410 5 0 0.0 0.0 0.00 0.00 0.00 93 1030.0
20190420042510 5 0 0.0 0.0 0.00 0.00 0.00 93 1029.9
20190420041610 5 0 0.0 0.0 0.00 0.00 0.00 93 1029.9
20190420040710 5 0 0.0 0.0 0.00 0.00 0.00 93 1029.8
20190420035810 5 0 0.0 0.0 0.00 0.00 0.00 93 1029.9
20190420034910 5 0 0.0 0.0 0.00 0.00 0.00 93 1029.9
20190420034010 5 0 0.0 0.0 0.00 0.00 0.00 93 1030.1
20190420033110 5 0 0.0 0.0 0.00 0.00 0.00 93 1030.2
20190420032210 5 0 0.0 0.0 0.00 0.00 0.00 92 1030.2
20190420031310 6 0 0.0 0.0 0.00 0.00 0.00 92 1030.1
20190420030410 6 0 0.0 0.0 0.00 0.00 0.00 91 1030.2
20190420025510 6 0 0.0 0.0 0.00 0.00 0.00 91 1030.3
20190420024610 6 0 0.0 0.0 0.00 0.00 0.00 91 1030.3
20190420023710 6 0 0.0 0.0 0.00 0.00 0.00 91 1030.4
20190420022810 6 0 0.0 0.0 0.00 0.00 0.00 91 1030.3
20190420021912 6 0 0.0 0.0 0.00 0.00 0.00 90 1030.4
20190420021010 6 0 0.0 0.0 0.00 0.00 0.00 90 1030.3
20190420020110 6 0 0.0 0.0 0.00 0.00 0.00 90 1030.1
20190420015210 6 0 0.0 0.0 0.00 0.00 0.00 89 1030.1
20190420014310 6 0 0.0 0.0 0.00 0.00 0.00 89 1030.2
20190420013410 6 0 0.0 0.0 0.00 0.00 0.00 89 1030.0
20190420012510 6 0 0.0 0.0 0.00 0.00 0.00 88 1030.1
20190420011610 7 0 0.0 0.0 0.00 0.00 0.00 87 1030.0
20190420010710 7 0 0.0 0.0 0.00 0.00 0.00 86 1030.0
20190420005810 7 0 0.0 0.0 0.00 0.00 0.00 86 1030.0
20190420004910 7 0 0.0 0.0 0.00 0.00 0.00 86 1030.1
20190420004010 7 0 0.0 0.0 0.00 0.00 0.00 86 1030.1
20190420003111 7 0 0.0 0.0 0.00 0.00 0.00 85 1030.0
20190420002210 7 0 0.0 0.0 0.00 0.00 0.00 85 1030.1
20190420001310 8 0 0.0 0.0 0.00 0.00 0.00 84 1030.0
20190420000410 8 0 0.0 0.0 0.00 0.00 0.00 84 1030.3
20190419235510 8 0 0.0 0.0 0.00 0.00 0.00 84 1030.0
20190419234610 8 0 0.0 0.0 0.00 0.00 0.00 83 1030.1
20190419233710 8 0 0.0 0.0 0.00 0.00 0.00 82 1030.1
20190419232810 8 0 0.0 0.0 0.00 0.00 0.00 82 1030.1
20190419231910 8 0 0.0 0.0 0.00 0.00 0.00 81 1030.1
20190419231010 8 0 0.0 0.0 0.00 0.00 0.00 79 1030.0
20190419230110 9 0 0.0 0.0 0.00 0.00 0.00 78 1030.2
20190419225210 9 0 0.0 0.0 0.00 0.00 0.00 78 1030.1
20190419224310 10 0 0.0 0.0 0.00 0.00 0.00 77 1030.1
20190419223410 10 0 0.0 0.0 0.00 0.00 0.00 75 1030.0
20190419222510 10 0 0.0 0.0 0.00 0.00 0.00 74 1030.0
20190419221610 10 0 0.0 0.0 0.00 0.00 0.00 73 1030.0
20190419220710 10 0 0.0 0.0 0.00 0.00 0.00 72 1030.0
20190419215810 11 0 0.0 0.0 0.00 0.00 0.00 71 1030.0
20190419214910 11 0 0.0 0.0 0.00 0.00 0.00 70 1029.9
20190419214013 11 0 0.0 0.0 0.00 0.00 0.00 70 1029.9
20190419213110 11 0 0.0 0.0 0.00 0.00 0.00 70 1029.9
20190419212210 11 0 0.0 0.0 0.00 0.00 0.00 70 1029.7
20190419211310 12 0 0.0 0.0 0.00 0.00 0.00 68 1029.9
20190419210410 12 0 0.0 0.0 0.00 0.00 0.00 68 1029.8
20190419205510 12 0 0.0 0.0 0.00 0.00 0.00 68 1029.6
20190419204610 12 0 0.0 0.0 0.00 0.00 0.00 67 1029.5
20190419203710 13 0 0.0 0.0 0.00 0.00 0.00 65 1029.5
20190419202810 13 0 0.0 0.0 0.00 0.00 0.00 64 1029.4
20190419201910 13 0 0.0 0.0 0.00 0.00 0.00 63 1029.5
20190419201010 14 0 0.0 0.0 0.00 0.00 0.00 61 1029.3
20190419200110 14 0 0.0 0.0 0.00 0.00 0.00 59 1029.3
20190419195210 15 0 0.0 0.0 0.00 0.00 0.00 56 1029.2
20190419194310 15 0 0.0 0.0 0.00 0.00 0.00 54 1029.3
20190419193410 16 0 0.0 0.0 0.00 0.00 0.00 52 1029.1
20190419192510 16 0 0.0 0.0 0.00 0.00 0.00 50 1028.8
20190419191610 17 0 0.0 0.0 0.00 0.00 0.00 49 1028.8
20190419190710 17 0 0.0 0.0 0.00 0.00 0.00 47 1028.7
20190419185810 17 0 0.0 0.0 0.00 0.00 0.00 44 1028.7
20190419184910 18 0 0.0 0.0 0.00 0.00 0.00 42 1028.5
20190419184010 19 0 0.0 0.0 0.00 0.00 0.00 40 1028.4
20190419183110 20 0 0.0 0.0 0.00 0.00 0.00 38 1028.3
20190419182210 20 0 0.0 0.0 0.00 0.00 0.00 36 1028.1
20190419181310 20 0 0.0 0.0 0.00 0.00 0.00 35 1028.0
20190419180410 21 181 0.0 1.6 0.00 0.00 0.00 33 1027.9
20190419175510 21 216 0.0 3.2 0.00 0.00 0.00 33 1027.7
20190419174610 22 328 1.6 6.4 0.00 0.00 0.00 32 1027.6
20190419173710 22 64 8.0 12.9 0.00 0.00 0.00 30 1027.5
20190419172810 22 53 6.4 11.3 0.00 0.00 0.00 30 1027.4
20190419171910 22 70 3.2 9.7 0.00 0.00 0.00 29 1027.4
20190419171010 22 41 8.0 12.9 0.00 0.00 0.00 29 1027.4
20190419170110 22 48 9.7 17.7 0.00 0.00 0.00 29 1027.4
20190419165210 23 57 4.8 12.9 0.00 0.00 0.00 32 1027.3
20190419164310 23 37 6.4 12.9 0.00 0.00 0.00 30 1027.3
20190419163410 23 66 6.4 11.3 0.00 0.00 0.00 31 1027.3
20190419162510 23 76 9.7 12.9 0.00 0.00 0.00 30 1027.3
20190419161610 23 42 4.8 12.9 0.00 0.00 0.00 30 1027.2
20190419160710 23 48 4.8 11.3 0.00 0.00 0.00 31 1027.2
20190419155810 23 21 8.0 14.5 0.00 0.00 0.00 32 1027.1
20190419154910 23 31 9.7 14.5 0.00 0.00 0.00 32 1027.0
20190419154010 23 51 6.4 14.5 0.00 0.00 0.00 31 1027.1
20190419153110 23 105 8.0 16.1 0.00 0.00 0.00 31 1027.1
20190419152210 23 47 8.0 12.9 0.00 0.00 0.00 32 1027.1
20190419151310 23 60 11.3 16.1 0.00 0.00 0.00 32 1027.3
20190419150410 23 87 6.4 11.3 0.00 0.00 0.00 32 1027.2
20190419145510 23 183 4.8 9.7 0.00 0.00 0.00 32 1027.2
20190419144610 23 65 8.0 12.9 0.00 0.00 0.00 32 1027.4
20190419143712 23 61 8.0 12.9 0.00 0.00 0.00 33 1027.4
20190419142810 23 98 3.2 9.7 0.00 0.00 0.00 34 1027.3
20190419141910 23 34 4.8 12.9 0.00 0.00 0.00 34 1027.6
20190419141010 23 67 8.0 12.9 0.00 0.00 0.00 34 1027.5
20190419140110 23 60 6.4 14.5 0.00 0.00 0.00 34 1027.5
20190419135211 23 62 6.4 12.9 0.00 0.00 0.00 35 1027.4
20190419134310 22 48 8.0 16.1 0.00 0.00 0.00 34 1027.7
20190419133410 22 54 9.7 16.1 0.00 0.00 0.00 36 1027.7
20190419132510 22 58 12.9 20.9 0.00 0.00 0.00 37 1027.8
20190419131610 22 38 11.3 16.1 0.00 0.00 0.00 37 1027.7
20190419130710 22 86 6.4 14.5 0.00 0.00 0.00 38 1027.9
20190419125810 22 48 6.4 12.9 0.00 0.00 0.00 39 1027.9
20190419124910 22 66 6.4 17.7 0.00 0.00 0.00 39 1027.9
20190419124010 22 68 8.0 12.9 0.00 0.00 0.00 39 1027.8
20190419123110 22 79 6.4 14.5 0.00 0.00 0.00 40 1027.7